Bloomington, IL

7:18 PM CDT on October 23, 2017 (GMT -0500)
Central Ill Regional

Weather History for KBMI - March, 2014

Change the Weather History Date:

Saturday, March 29, 2014

  Actual Average Record
Temperature  
Mean Temperature 34 °F -  
Max Temperature 39 °F 66 °F 77 °F (1998)
Min Temperature 28 °F 56 °F 24 °F (2008)
Degree Days  
Heating Degree Days 30    
Moisture  
Dew Point 29 °F    
Average Humidity 78    
Maximum Humidity 92    
Minimum Humidity 65    
Precipitation  
Precipitation 0.00 in - - ()
Sea Level Pressure  
Sea Level Pressure 30.22 in    
Wind  
Wind Speed 10 mph (NNE)    
Max Wind Speed 18 mph    
Max Gust Speed 23 mph    
Visibility 8 miles    
Events      
Averages and records for this station are not official NWS values.
T = Trace of Precipitation, MM = Missing Value Source: NWS Daily Summary

Daily Weather History Graph

Daily Weather History Graph

Search for Another Location

Airport or City:

Trip Planner

Search our weather history database for the weather conditions in past years. The results will help you decide how hot, cold, wet, or windy it might be!

Date:

Astronomy

Mar. 29, 2014 Rise Set
Actual Time 6:44 AM CDT 7:17 PM CDT
Civil Twilight 6:16 AM CDT 7:44 PM CDT
Nautical Twilight 5:44 AM CDT 8:17 PM CDT
Astronomical Twilight 5:11 AM CDT 8:50 PM CDT
Moon 5:53 AM CDT (3/29) 6:22 PM CDT (3/29)
Length of Visible Light 13h 27m
Length of Day
12h 32m
Waning Crescent, 2% of the Moon is Illuminated
Mar 29
Waning Crescent
Mar 30
New
Apr 7
First Quarter
Apr 15
Full
Apr 22
Last Quarter

Hourly Weather History & Observations

Time (CDT) Temp. Windchill Dew Point Humidity Pressure Visibility Wind Dir Wind Speed Gust Speed Precip Events Conditions
12:56 AM 36.0 °F 31.1 °F 32.9 °F 89% 30.19 in 5.0 mi NE 5.8 mph - N/A   Overcast
1:56 AM 34.9 °F 27.7 °F 32.9 °F 92% 30.17 in 4.0 mi NE 9.2 mph - N/A   Overcast
2:56 AM 34.9 °F 26.6 °F 32.0 °F 89% 30.15 in 3.0 mi NNE 11.5 mph - N/A   Overcast
3:56 AM 34.0 °F 26.0 °F 31.1 °F 89% 30.16 in 5.0 mi NE 10.4 mph - N/A   Overcast
4:56 AM 32.9 °F 24.7 °F 30.0 °F 89% 30.16 in 5.0 mi NE 10.4 mph - N/A   Overcast
5:56 AM 32.9 °F 25.9 °F 30.0 °F 89% 30.17 in 6.0 mi NNE 8.1 mph - N/A   Overcast
6:56 AM 32.0 °F 24.8 °F 29.1 °F 89% 30.18 in 6.0 mi North 8.1 mph - N/A   Overcast
7:56 AM 32.0 °F 23.6 °F 28.0 °F 85% 30.19 in 5.0 mi North 10.4 mph - N/A   Overcast
8:56 AM 32.9 °F 23.2 °F 27.1 °F 79% 30.21 in 8.0 mi North 13.8 mph - N/A   Overcast
9:56 AM 34.9 °F 24.9 °F 27.1 °F 73% 30.22 in 10.0 mi North 16.1 mph - N/A   Mostly Cloudy
10:56 AM 37.9 °F 28.2 °F 28.0 °F 68% 30.23 in 10.0 mi NNE 18.4 mph 23.0 mph N/A   Mostly Cloudy
11:56 AM 36.0 °F 25.6 °F 28.0 °F 73% 30.23 in 10.0 mi NNE 18.4 mph - N/A   Overcast
12:27 PM 35.6 °F 25.9 °F 28.4 °F 75% 30.19 in 10.0 mi North 16.1 mph - N/A   Overcast
12:56 PM 34.9 °F 24.6 °F 28.0 °F 76% 30.23 in 10.0 mi North 17.3 mph - N/A   Overcast
1:56 PM 36.0 °F 26.3 °F 29.1 °F 76% 30.22 in 10.0 mi North 16.1 mph - N/A   Overcast
2:35 PM 37.4 °F 28.2 °F 28.4 °F 70% 30.17 in 10.0 mi North 16.1 mph - N/A   Overcast
2:56 PM 36.9 °F 28.2 °F 29.1 °F 74% 30.22 in 10.0 mi North 13.8 mph - N/A   Overcast
3:56 PM 37.9 °F 29.2 °F 29.1 °F 71% 30.23 in 10.0 mi North 15.0 mph - N/A   Overcast
4:56 PM 38.8 °F 31.6 °F 29.1 °F 68% 30.24 in 10.0 mi North 11.5 mph - N/A   Overcast
5:56 PM 39.9 °F 32.9 °F 29.1 °F 65% 30.25 in 10.0 mi NNE 11.5 mph - N/A   Mostly Cloudy
6:03 PM 39.2 °F 31.6 °F 28.4 °F 65% 30.21 in 10.0 mi North 12.7 mph - N/A   Scattered Clouds
6:56 PM 37.9 °F 30.9 °F 28.0 °F 68% 30.27 in 10.0 mi North 10.4 mph - N/A   Clear
7:56 PM 34.9 °F 30.8 °F 27.1 °F 73% 30.29 in 10.0 mi North 4.6 mph - N/A   Clear
8:56 PM 32.9 °F - 27.1 °F 79% 30.29 in 10.0 mi Calm Calm - N/A   Clear
9:56 PM 30.0 °F 26.5 °F 25.2 °F 82% 30.30 in 10.0 mi NW 3.5 mph - N/A   Clear
10:56 PM 32.0 °F 28.7 °F 27.1 °F 82% 30.30 in 10.0 mi NNE 3.5 mph - N/A   Clear
11:56 PM 28.0 °F 21.7 °F 25.2 °F 89% 30.30 in 9.0 mi East 5.8 mph - N/A   Clear